{"data":{"norad_id":68942,"epoch":"2026-05-25T02:51:42.348096Z","epoch_age_seconds":78807,"freshness":"FRESH","line1":"1 68942U 26098Z   26145.11924014  .00016679  00000+0  50387-3 0  9998","line2":"2 68942  51.8766 178.9093 0004817  79.1287 281.0240 15.34353666  3805","mean_motion":15.34353666,"eccentricity":0.0004817,"inclination_deg":51.8766,"raan_deg":178.9093,"arg_perigee_deg":79.1287,"mean_anomaly_deg":281.024,"bstar":0.00050387,"rev_number":380,"period_min":93.850592070733,"perigee_km":459.54565900268,"apogee_km":466.1362571675,"semimajor_km":6840.9779580851,"source":"CELESTRAK","updated_at":"2026-05-25T13:38:08.797532Z"}}